Pontiac, MI

9:57 AM EDT on September 26, 2017 (GMT -0400)
Oakland County International

Weather History for KPTK - October, 2011

Change the Weather History Date:

Monday, October 17, 2011

  Actual Average Record
Temperature  
Mean Temperature 50 °F -  
Max Temperature 59 °F 56 °F 78 °F (2016)
Min Temperature 44 °F 39 °F 28 °F (2002)
Degree Days  
Heating Degree Days 14    
Moisture  
Dew Point 33 °F    
Average Humidity 54    
Maximum Humidity 68    
Minimum Humidity 32    
Precipitation  
Precipitation 0.00 in - - ()
Sea Level Pressure  
Sea Level Pressure 29.71 in    
Wind  
Wind Speed 12 mph (WSW)    
Max Wind Speed 28 mph    
Max Gust Speed 36 mph    
Visibility 10 miles    
Events      
Averages and records for this station are not official NWS values.
T = Trace of Precipitation, MM = Missing Value Source: NWS Daily Summary

Daily Weather History Graph

Daily Weather History Graph

Search for Another Location

Airport or City:

Trip Planner

Search our weather history database for the weather conditions in past years. The results will help you decide how hot, cold, wet, or windy it might be!

Date:

Astronomy

Oct. 17, 2011 Rise Set
Actual Time 7:48 AM EDT 6:48 PM EDT
Civil Twilight 7:20 AM EDT 7:17 PM EDT
Nautical Twilight 6:47 AM EDT 7:49 PM EDT
Astronomical Twilight 6:14 AM EDT 8:22 PM EDT
Moon 10:22 PM EDT (10/17) 1:00 PM EDT (10/17)
Length of Visible Light 11h 56m
Length of Day
10h 59m
Waning Gibbous, 74% of the Moon is Illuminated
Oct 17
Waning Gibbous
Oct 19
Last Quarter
Oct 26
New
Nov 2
First Quarter
Nov 10
Full

Hourly Weather History & Observations

Time (EDT) Temp. Windchill Dew Point Humidity Pressure Visibility Wind Dir Wind Speed Gust Speed Precip Events Conditions
12:53 AM 48.0 °F - 37.0 °F 66% 29.70 in 10.0 mi WSW 10.4 mph 19.6 mph N/A   Clear
1:53 AM 46.9 °F - 37.0 °F 68% 29.70 in 10.0 mi WSW 9.2 mph - N/A   Clear
2:53 AM 46.0 °F 41.9 °F 36.0 °F 68% 29.69 in 10.0 mi WSW 8.1 mph - N/A   Clear
3:53 AM 46.0 °F 41.4 °F 35.1 °F 66% 29.69 in 10.0 mi WSW 9.2 mph - N/A   Clear
4:53 AM 46.9 °F - 34.0 °F 61% 29.69 in 10.0 mi West 12.7 mph - N/A   Clear
5:53 AM 46.4 °F 41.5 °F 33.8 °F 62% 29.69 in 10.0 mi West 10.4 mph - N/A   Clear
6:10 AM 44.6 °F 38.8 °F 33.8 °F 66% 29.69 in 10.0 mi WSW 11.5 mph 17.3 mph N/A   Clear
6:53 AM 44.1 °F 39.5 °F 33.1 °F 65% 29.70 in 10.0 mi WSW 8.1 mph - N/A   Clear
7:53 AM 44.1 °F 39.0 °F 33.1 °F 65% 29.70 in 10.0 mi WSW 9.2 mph - N/A   Partly Cloudy
8:53 AM 45.0 °F 39.3 °F 33.1 °F 63% 29.72 in 10.0 mi SW 11.5 mph 19.6 mph N/A   Partly Cloudy
9:53 AM 48.0 °F - 34.0 °F 58% 29.71 in 10.0 mi WSW 16.1 mph 26.5 mph N/A   Scattered Clouds
10:53 AM 51.1 °F - 35.1 °F 54% 29.70 in 10.0 mi WSW 15.0 mph 28.8 mph N/A   Scattered Clouds
11:53 AM 53.1 °F - 34.0 °F 48% 29.70 in 10.0 mi West 18.4 mph 32.2 mph N/A   Scattered Clouds
12:53 PM 54.0 °F - 34.0 °F 47% 29.68 in 10.0 mi West 18.4 mph 31.1 mph N/A   Scattered Clouds
1:53 PM 57.0 °F - 30.9 °F 37% 29.67 in 10.0 mi SW 20.7 mph 29.9 mph N/A   Partly Cloudy
2:53 PM 57.9 °F - 28.9 °F 33% 29.67 in 10.0 mi West 27.6 mph 34.5 mph N/A   Partly Cloudy
3:53 PM 57.9 °F - 28.0 °F 32% 29.66 in 10.0 mi WSW 24.2 mph 35.7 mph N/A   Scattered Clouds
4:53 PM 57.9 °F - 28.9 °F 33% 29.67 in 10.0 mi WSW 20.7 mph 29.9 mph N/A   Scattered Clouds
5:53 PM 55.9 °F - 28.0 °F 34% 29.68 in 10.0 mi West 16.1 mph 32.2 mph N/A   Mostly Cloudy
6:53 PM 53.1 °F - 30.0 °F 41% 29.72 in 10.0 mi West 15.0 mph - N/A   Scattered Clouds
7:53 PM 51.8 °F - 32.0 °F 47% 29.74 in 10.0 mi West 13.8 mph 21.9 mph N/A   Scattered Clouds
8:53 PM 50.0 °F - 32.0 °F 50% 29.77 in 10.0 mi West 10.4 mph - N/A   Partly Cloudy
9:53 PM 46.9 °F - 33.1 °F 59% 29.78 in 10.0 mi WSW 5.8 mph - N/A   Scattered Clouds
10:53 PM 48.0 °F - 34.0 °F 58% 29.78 in 10.0 mi WSW 9.2 mph - N/A   Mostly Cloudy
11:53 PM 46.9 °F - 35.1 °F 63% 29.78 in 10.0 mi WSW 8.1 mph - N/A   Scattered Clouds